Regional Weather Roundup
Issued by NWS

Home | Current Version | Previous Version | Text Only | Print | Product List | Glossary Off
Versions: 1 2 3 4 5 6 7 8 9 10 11 12 13 14 15 16 17 18 19 20 21 22 23 24 25 26 27 28 29 30 31 32 33 34 35 36 37 38 39 40 41 42 43 44 45 46 47 48 49 50

000
ASUS43 KLSX 210559
RWRMO

WEATHER SUMMARY FOR MISSOURI
NATIONAL WEATHER SERVICE SPRINGFIELD MO
100 AM CDT SUN SEP 21 2014

NOTE: "FAIR" INDICATES FEW OR NO CLOUDS BELOW 12,000 FEET WITH NO
       SIGNIFICANT WEATHER AND/OR OBSTRUCTIONS TO VISIBILITY.
       CURRENT SKY AND/OR WEATHER CONDITIONS ARE NOT AVAILABLE FOR
       CHILLICOTHE AND FARMINGTON.

MOZ001>031-035>038-043-044-053-054-210700-
...NORTHERN AND WESTERN MISSOURI...

CITY           SKY/WX    TMP DP  RH WIND       PRES   REMARKS
KANSAS CTY INT CLEAR     68  66  93 W8        30.00S
6HR MIN TEMP:  68; 6HR MAX TEMP:  77;

KANSAS C DTWN  CLEAR     70  67  90 SW6       29.98S
6HR MIN TEMP:  70; 6HR MAX TEMP:  81;

LEE`S SUMMIT   CLEAR     68  67  96 SW6       30.00S
6HR MIN TEMP:  68; 6HR MAX TEMP:  78;

ST JOSEPH      CLEAR     70  63  78 N18G28    30.01R
6HR MIN TEMP:  62; 6HR MAX TEMP:  77;

KIRKSVILLE     CLEAR     70  63  78 NW14G21   29.96R
6HR MIN TEMP:  68; 6HR MAX TEMP:  76;


$$
MOZ066>068-077>081-088>096-101>105-210700-
...SOUTHWEST MISSOURI...

CITY           SKY/WX    TMP DP  RH WIND       PRES   REMARKS
SPRINGFIELD    MOCLDY    70  67  90 S6        30.02S
6HR MIN TEMP:  70; 6HR MAX TEMP:  79;

JOPLIN         MOCLDY    74  68  81 SW8       30.01F
6HR MIN TEMP:  73; 6HR MAX TEMP:  80;


$$
MOZ032>034-039>042-045>050-055>058-069>072-210700-
...CENTRAL MISSOURI...

CITY           SKY/WX    TMP DP  RH WIND       PRES   REMARKS
COLUMBIA       PTCLDY    74  70  87 W9        29.96S
6HR MIN TEMP:  71; 6HR MAX TEMP:  77;

JEFFERSON CITY MOCLDY    74  69  85 W3        29.95S
6HR MIN TEMP:  71; 6HR MAX TEMP:  80;

ROLLA          MOCLDY    70  67  90 SW8       29.97F
6HR MIN TEMP:  69; 6HR MAX TEMP:  76;

SEDALIA        PTCLDY    73  69  87 W6        29.98S
6HR MIN TEMP:  73; 6HR MAX TEMP:  78;

OSAGE BEACH    PTCLDY    73  66  78 SW5       29.98F

$$
MOZ051-052-059>065-210700-
...EAST CENTRAL MISSOURI...

CITY           SKY/WX    TMP DP  RH WIND       PRES   REMARKS
ST LOUIS INTL  MOCLDY    77  68  73 W13       29.91F
6HR MIN TEMP:  76; 6HR MAX TEMP:  83;

SPIRIT OF STL  MOCLDY    75  68  78 SW8       29.90F
6HR MIN TEMP:  68; 6HR MAX TEMP:  78;

ST CHARLES     CLOUDY    73  69  87 SW3       29.89F
6HR MIN TEMP:  67; 6HR MAX TEMP:  81; 6HR PCP:  0.01;


$$
MOZ072>076-082>087-097>100-106>115-210700-
...SOUTH CENTRAL AND SOUTHEAST MISSOURI...

CITY           SKY/WX    TMP DP  RH WIND       PRES   REMARKS
CAPE GIRARDEAU CLEAR     67  64  90 NW3       29.96F
6HR MIN TEMP:  66; 6HR MAX TEMP:  77;

FARMINGTON     CLEAR     70  66  88 CALM      29.99S
6HR MIN TEMP:  70; 6HR MAX TEMP:  77;

POPLAR BLUFF   CLEAR     70  65  84 SW3       29.97F
6HR MIN TEMP:  68; 6HR MAX TEMP:  79;

WEST PLAINS    CLEAR     69  66  90 SW5       30.03F
6HR MIN TEMP:  69; 6HR MAX TEMP:  79;


$$



USA.gov is the U.S. government's official web portal to all federal, state and local government web resources and services.